Location: Aghk�ilisa
(40.0189°N, 45.0097°E)
Time: 17:35:20
(UTC+00:00)

SL-24 R/B - Pass Details

Date: 21 October 2019
Orbit: 616 x 1347 km, 97.9° (Epoch: 12 November)

Event Time Altitude Azimuth Distance (km) Brightness Sun altitude
Rises 15:58:35 0° 16° (NNE) 3,611 7.9 -21.0°
Reaches altitude 10° 16:01:17 10° 20° (NNE) 2,547 7.0 -21.5°
Maximum altitude 16:06:44 55° 98° (E) 923 4.5 -22.6°
Enters shadow 16:06:48 55° 102° (ESE) 922 4.5 -22.6°
Exits shadow 16:09:03 29° 164° (SSE) 1,328 5.5 -23.0°
Drops below altitude 10° 16:11:19 10° 177° (S) 2,147 6.7 -23.4°
Sets 16:13:26 0° 182° (S) 2,996 7.5 -23.8°
